Flag for Germany Weather past 2 weeks in Siegen, North Rhine-Westphalia, Germany

Now
55 °F

Sunny.


Feels Like: 55 °F
Forecast: 45 / 64 °F
Wind: 5 mph from West

Location: Hessen

Current Time: Sep 2, 2015 at 9:12:26 PM

Latest Report: Sep 2, 2015 at 8:20 PM


Visibility: 10 mi

Pressure: 30.01 "Hg

Humidity: 82%

Dew point: 50 °F

Location of SiegenLocation

Historic Weather in Siegen — Graph

°F

Siegen temperature yesterday

Maximum temperature yesterday: 61 °F (at 7:50 AM)
Minimum temperature yesterday: 54 °F (at 6:20 PM)
Average temperature yesterday: 56 °F

Past Weeks' High & Low Weather Summary

 TemperatureHumidityPressure
High86 °F (Aug 30, 5:50 PM)100% (Aug 21, 8:20 AM)30.30 "Hg (Aug 21, 8:20 AM)
Low48 °F (Sep 2, 6:50 AM)31% (Aug 31, 2:50 PM)29.68 "Hg (Aug 24, 1:50 PM)
Average64 °F73%30.05 "Hg
* Reported Aug 18 7:20 PM — Sep 2 7:50 PM, Siegen, Weather by CustomWeather, © 2015

Note: Actual official high and low records may vary slightly from our data, if they occured in-between our weather recording intervals... More about our weather records

Advertising

Siegen weather history for previous 24 hours

 ConditionsComfort  
Time TempWeatherWind HumidityBarometerVisibility
7:50 PM
Wed, Sep 2
57 °FSunny.6 mph77%30.01 "Hg10 mi
7:20 PM57 °FSunny.3 mph77%30.01 "Hg10 mi
6:50 PM57 °FSunny.5 mph82%30.01 "Hg10 mi
6:20 PM57 °FScattered clouds.7 mph77%30.01 "HgN/A
5:20 PM57 °FPartly sunny.6 mph82%30.04 "HgN/A
4:50 PM57 °FPartly sunny.7 mph77%30.04 "HgN/A
4:20 PM59 °FScattered clouds.9 mph72%30.01 "HgN/A
3:50 PM61 °FScattered clouds.8 mph59%30.04 "HgN/A
3:20 PM63 °FScattered clouds.7 mph59%30.04 "HgN/A
2:50 PM63 °FBroken clouds.9 mph59%30.04 "HgN/A
2:20 PM63 °FBroken clouds.8 mph59%30.04 "HgN/A
1:50 PM61 °FBroken clouds.6 mph68%30.04 "HgN/A
1:20 PM57 °FScattered clouds.8 mph77%30.04 "HgN/A
12:50 PM59 °FPartly sunny.8 mph68%30.07 "HgN/A
12:20 PM59 °FBroken clouds.8 mph72%30.07 "HgN/A
11:50 AM55 °FBroken clouds.6 mph82%30.07 "HgN/A
11:20 AM54 °FPartly sunny.6 mph88%30.07 "HgN/A
10:50 AM54 °FPartly sunny.6 mph82%30.07 "HgN/A
10:20 AM54 °FPartly sunny.5 mph88%30.07 "HgN/A
9:50 AM52 °FBroken clouds.5 mph94%30.07 "HgN/A
9:20 AM52 °FFog.3 mph100%30.07 "Hg3 mi
8:50 AM50 °FFog.3 mph100%30.07 "Hg1 mi
8:20 AM50 °FFog.5 mph100%30.07 "Hg1 mi
7:50 AM48 °FFog.5 mph100%30.07 "Hg1 mi
7:20 AM48 °FFog.5 mph100%30.07 "Hg0 mi
6:50 AM48 °FFog.5 mph100%30.07 "Hg0 mi
9:50 PM
Tue, Sep 1
54 °FPassing clouds.9 mph100%30.04 "Hg5 mi
9:20 PM54 °FPassing clouds.10 mph100%30.04 "HgN/A
Weather by CustomWeather, © 2015

See weather overviewHow to use our weather pages